Lee's Summit, MO

5:04 AM CST on February 21, 2017 (GMT -0600)
Lee's Summit Municipal

Weather History for KLXT - March, 2013

Change the Weather History Date:

Sunday, March 17, 2013

  Actual Average (KMKC) Record (KMKC)
Temperature  
Mean Temperature 34 °F -  
Max Temperature 36 °F 52 °F 82 °F (2009)
Min Temperature 32 °F 33 °F 21 °F (2014)
Degree Days  
Heating Degree Days 31    
Moisture  
Dew Point 28 °F    
Average Humidity 83    
Maximum Humidity 92    
Minimum Humidity 67    
Precipitation  
Precipitation 0.16 in - - ()
Sea Level Pressure  
Sea Level Pressure 29.95 in    
Wind  
Wind Speed 14 mph (ENE)    
Max Wind Speed 17 mph    
Max Gust Speed 24 mph    
Visibility 8 miles    
Events Rain , Snow    
Averages and records for this station are not official NWS values.
T = Trace of Precipitation, MM = Missing Value Source: NWS Daily Summary

Daily Weather History Graph

Daily Weather History Graph

Search for Another Location

Airport or City:

Trip Planner

Search our weather history database for the weather conditions in past years. The results will help you decide how hot, cold, wet, or windy it might be!

Date:

Astronomy

Mar. 17, 2013 Rise Set
Actual Time 7:25 AM CDT 7:26 PM CDT
Civil Twilight 6:58 AM CDT 7:53 PM CDT
Nautical Twilight 6:27 AM CDT 8:24 PM CDT
Astronomical Twilight 5:56 AM CDT 8:55 PM CDT
Moon 10:41 AM CDT (3/17) 12:32 AM CDT (3/17)
Length of Visible Light 12h 54m
Length of Day
12h 01m
Waxing Crescent, 31% of the Moon is Illuminated
Mar 17
Waxing Crescent
Mar 19
First Quarter
Mar 27
Full
Apr 2
Last Quarter
Apr 10
New

Hourly Weather History & Observations

Time (CDT) Temp. Windchill Dew Point Humidity Pressure Visibility Wind Dir Wind Speed Gust Speed Precip Events Conditions
12:53 AM 36.0 °F 27.1 °F 26.1 °F 67% 30.07 in 10.0 mi NE 13.8 mph - N/A   Overcast
1:53 AM 35.1 °F 27.4 °F 27.0 °F 72% 30.06 in 10.0 mi NE 10.4 mph - N/A   Overcast
2:53 AM 35.1 °F 25.9 °F 25.0 °F 67% 30.07 in 10.0 mi NE 13.8 mph 24.2 mph N/A   Overcast
3:53 AM 34.0 °F 24.6 °F 25.0 °F 70% 30.06 in 10.0 mi NE 13.8 mph - N/A   Overcast
4:53 AM 33.1 °F 22.2 °F 25.0 °F 72% 30.04 in 10.0 mi NE 17.3 mph 23.0 mph N/A   Overcast
5:53 AM 32.0 °F 21.6 °F 25.0 °F 75% 30.04 in 9.0 mi ENE 15.0 mph - 0.00 in Snow Light Snow
6:53 AM 32.0 °F 23.0 °F 26.1 °F 79% 30.05 in 10.0 mi ENE 11.5 mph - 0.00 in   Overcast
7:04 AM 32.0 °F 23.0 °F 26.6 °F 80% 30.03 in 10.0 mi ENE 11.5 mph - N/A   Overcast
7:53 AM 32.0 °F 23.0 °F 26.1 °F 79% 30.05 in 10.0 mi ENE 11.5 mph 21.9 mph N/A   Overcast
8:53 AM 32.0 °F 22.1 °F 26.1 °F 79% 30.04 in 10.0 mi ENE 13.8 mph - N/A   Overcast
9:00 AM 32.0 °F 21.2 °F 26.6 °F 80% 30.02 in 10.0 mi ENE 16.1 mph - N/A   Overcast
9:53 AM 32.0 °F 22.5 °F 26.1 °F 79% 30.04 in 9.0 mi ENE 12.7 mph - N/A   Overcast
10:53 AM 32.0 °F 21.2 °F 28.0 °F 85% 30.03 in 5.0 mi ENE 16.1 mph - 0.01 in   Overcast
11:16 AM 32.0 °F 22.5 °F 28.4 °F 87% 29.99 in 5.0 mi East 12.7 mph - 0.00 in   Overcast
11:53 AM 32.0 °F 22.1 °F 28.9 °F 88% 30.01 in 6.0 mi East 13.8 mph - 0.00 in   Overcast
12:53 PM 33.1 °F 22.6 °F 30.0 °F 89% 29.98 in 5.0 mi ENE 16.1 mph 21.9 mph 0.01 in   Overcast
1:53 PM 34.0 °F 23.4 °F 30.0 °F 85% 29.94 in 6.0 mi ENE 17.3 mph - 0.00 in   Overcast
2:53 PM 34.0 °F 24.2 °F 30.9 °F 89% 29.90 in 5.0 mi ENE 15.0 mph 21.9 mph 0.02 in Rain Light Rain
3:53 PM 34.0 °F 23.8 °F 30.0 °F 85% 29.87 in 7.0 mi ENE 16.1 mph - 0.00 in   Overcast
4:53 PM 33.1 °F 22.6 °F 30.0 °F 89% 29.85 in 8.0 mi ENE 16.1 mph - 0.00 in   Overcast
5:53 PM 33.1 °F 23.4 °F 30.0 °F 89% 29.84 in 8.0 mi NE 13.8 mph - N/A   Overcast
6:53 PM 33.1 °F 23.0 °F 30.0 °F 89% 29.82 in 7.0 mi East 15.0 mph 24.2 mph 0.00 in   Overcast
7:53 PM 33.1 °F 23.9 °F 30.9 °F 92% 29.81 in 2.5 mi ENE 12.7 mph - 0.10 in Rain Heavy Rain
8:05 PM 33.8 °F 23.5 °F 30.2 °F 87% 29.78 in 4.0 mi East 16.1 mph 21.9 mph 0.01 in Rain Rain
8:53 PM 34.0 °F 24.2 °F 30.9 °F 89% 29.79 in 6.0 mi East 15.0 mph - 0.02 in Rain Light Rain
9:53 PM 34.0 °F 26.0 °F 30.9 °F 89% 29.80 in 10.0 mi East 10.4 mph - 0.00 in   Overcast
10:53 PM 34.0 °F 26.6 °F 32.0 °F 92% 29.80 in 6.0 mi East 9.2 mph - N/A   Overcast
11:53 PM 34.0 °F 28.0 °F 32.0 °F 92% 29.78 in 6.0 mi East 6.9 mph - N/A   Overcast